When you browse on this site, cookies collect data to enhance your experience and personalize the content and advertising you see.
Visit our Privacy Policy to learn more. By continuing to use the site, you agree to this use of cookies and data.
  • In Romania
  • List of Countries
  • For 7 days
  • Water Temperature
  • Satellite Maps
  • Weather Map
  • Weather Widgets
  • user-avatar
    Login

    Hourly Weather Arrecife

    Today, 25 April, Thursday

    Time Temperature Precipitation Wind Pressure Humidity
    00:00 +9°C° 0 mm 3 mps 673 mmHg 80%
    01:00 +9°C° 0 mm 3 mps 673 mmHg 81%
    02:00 +10°C° 0 mm 3 mps 673 mmHg 81%
    03:00 +10°C° 0 mm 3 mps 673 mmHg 82%
    04:00 +10°C° 0 mm 3 mps 673 mmHg 83%
    05:00 +10°C° 0 mm 3 mps 673 mmHg 84%
    06:00 +10°C° 0 mm 3 mps 673 mmHg 85%
    07:00 +10°C° 0.3 mm 3 mps 674 mmHg 84%
    08:00 +11°C° 0.3 mm 3 mps 674 mmHg 83%
    09:00 +11°C° 0.3 mm 3 mps 675 mmHg 83%
    10:00 +11°C° 0.3 mm 4 mps 675 mmHg 81%
    11:00 +12°C° 0.3 mm 4 mps 675 mmHg 79%
    12:00 +12°C° 0.3 mm 5 mps 676 mmHg 77%
    13:00 +11°C° 0.1 mm 6 mps 676 mmHg 72%
    14:00 +12°C° 0.1 mm 7 mps 676 mmHg 67%
    15:00 +12°C° 0.1 mm 8 mps 676 mmHg 62%
    16:00 +11°C° 0 mm 7 mps 676 mmHg 64%
    17:00 +10°C° 0 mm 7 mps 676 mmHg 67%
    18:00 +10°C° 0 mm 7 mps 676 mmHg 69%
    19:00 +8°C° 0 mm 5 mps 677 mmHg 74%
    20:00 +7°C° 0 mm 4 mps 677 mmHg 78%
    21:00 +7°C° 0 mm 3 mps 678 mmHg 82%
    22:00 +7°C° 0 mm 2 mps 678 mmHg 83%
    23:00 +7°C° 0 mm 2 mps 678 mmHg 84%

    Tomorrow, 26 April, Friday

    Time Temperature Precipitation Wind Pressure Humidity
    00:00 +7°C° 0 mm 1 mps 679 mmHg 85%
    01:00 +7°C° 0 mm 1 mps 679 mmHg 86%
    02:00 +6°C° 0 mm 1 mps 679 mmHg 88%
    03:00 +6°C° 0 mm 1 mps 679 mmHg 89%
    04:00 +6°C° 0 mm 1 mps 679 mmHg 89%
    05:00 +5°C° 0 mm 0 mps 679 mmHg 89%
    06:00 +5°C° 0 mm 0 mps 680 mmHg 89%
    07:00 +8°C° 0 mm 1 mps 680 mmHg 78%
    08:00 +10°C° 0 mm 1 mps 681 mmHg 66%
    09:00 +12°C° 0 mm 1 mps 682 mmHg 55%
    10:00 +13°C° 0 mm 1 mps 682 mmHg 49%
    11:00 +14°C° 0 mm 2 mps 682 mmHg 42%
    12:00 +16°C° 0 mm 2 mps 683 mmHg 36%
    13:00 +17°C° 0 mm 2 mps 682 mmHg 35%
    14:00 +17°C° 0 mm 3 mps 682 mmHg 34%
    15:00 +18°C° 0 mm 4 mps 682 mmHg 32%
    16:00 +17°C° 0 mm 3 mps 682 mmHg 36%
    17:00 +16°C° 0 mm 3 mps 682 mmHg 40%
    18:00 +14°C° 0 mm 3 mps 681 mmHg 44%
    19:00 +14°C° 0 mm 2 mps 682 mmHg 49%
    20:00 +12°C° 0 mm 2 mps 682 mmHg 55%
    21:00 +10°C° 0 mm 1 mps 682 mmHg 60%
    22:00 +10°C° 0 mm 1 mps 682 mmHg 61%
    23:00 +9°C° 0 mm 1 mps 682 mmHg 61%

    Day after tomorrow, 27 April, Saturday

    Time Temperature Precipitation Wind Pressure Humidity
    00:00 +9°C° 0 mm 1 mps 681 mmHg 62%
    01:00 +9°C° 0 mm 1 mps 681 mmHg 62%
    02:00 +9°C° 0 mm 1 mps 681 mmHg 62%
    03:00 +8°C° 0 mm 1 mps 681 mmHg 62%
    04:00 +8°C° 0 mm 1 mps 681 mmHg 63%
    05:00 +9°C° 0 mm 1 mps 681 mmHg 64%
    06:00 +9°C° 0 mm 1 mps 681 mmHg 65%
    07:00 +11°C° 0 mm 1 mps 682 mmHg 57%
    08:00 +14°C° 0 mm 1 mps 682 mmHg 50%
    09:00 +16°C° 0 mm 1 mps 683 mmHg 42%
    10:00 +18°C° 0 mm 1 mps 683 mmHg 38%
    11:00 +19°C° 0 mm 2 mps 684 mmHg 34%
    12:00 +20°C° 0 mm 2 mps 684 mmHg 30%
    13:00 +21°C° 0 mm 2 mps 684 mmHg 29%
    14:00 +21°C° 0 mm 2 mps 683 mmHg 28%
    15:00 +23°C° 0 mm 2 mps 683 mmHg 27%
    16:00 +21°C° 0 mm 2 mps 683 mmHg 30%
    17:00 +21°C° 0 mm 2 mps 682 mmHg 33%
    18:00 +20°C° 0 mm 2 mps 682 mmHg 35%
    19:00 +18°C° 0 mm 2 mps 682 mmHg 42%
    20:00 +16°C° 0 mm 2 mps 682 mmHg 48%
    21:00 +14°C° 0 mm 1 mps 682 mmHg 54%
    22:00 +13°C° 0 mm 2 mps 681 mmHg 58%
    23:00 +13°C° 0 mm 2 mps 681 mmHg 61%

    28 April, Sunday

    Time Temperature Precipitation Wind Pressure Humidity
    00:00 +12°C° 0 mm 2 mps 681 mmHg 65%
    01:00 +12°C° 0 mm 1 mps 680 mmHg 66%
    02:00 +11°C° 0 mm 1 mps 680 mmHg 67%
    03:00 +11°C° 0 mm 1 mps 679 mmHg 68%
    04:00 +11°C° 0 mm 1 mps 679 mmHg 66%
    05:00 +11°C° 0 mm 1 mps 679 mmHg 64%
    06:00 +11°C° 0 mm 1 mps 679 mmHg 61%
    07:00 +13°C° 0 mm 2 mps 679 mmHg 51%
    08:00 +16°C° 0 mm 2 mps 680 mmHg 40%
    09:00 +18°C° 0 mm 2 mps 681 mmHg 30%
    10:00 +19°C° 0 mm 2 mps 681 mmHg 28%
    11:00 +21°C° 0 mm 2 mps 681 mmHg 26%
    12:00 +23°C° 0 mm 2 mps 681 mmHg 24%
    13:00 +24°C° 0 mm 2 mps 680 mmHg 24%
    14:00 +24°C° 0 mm 2 mps 680 mmHg 24%
    15:00 +24°C° 0 mm 2 mps 679 mmHg 24%
    16:00 +24°C° 0 mm 2 mps 679 mmHg 28%
    17:00 +23°C° 0 mm 2 mps 679 mmHg 32%
    18:00 +22°C° 0 mm 1 mps 679 mmHg 36%
    19:00 +20°C° 0 mm 1 mps 679 mmHg 42%
    20:00 +18°C° 0 mm 1 mps 678 mmHg 48%
    21:00 +15°C° 0 mm 1 mps 678 mmHg 54%
    22:00 +15°C° 0 mm 1 mps 678 mmHg 56%
    23:00 +14°C° 0 mm 1 mps 678 mmHg 58%

    29 April, Monday

    Time Temperature Precipitation Wind Pressure Humidity
    00:00 +13°C° 0 mm 1 mps 678 mmHg 60%
    01:00 +13°C° 0 mm 1 mps 677 mmHg 62%
    02:00 +13°C° 0 mm 1 mps 677 mmHg 64%
    03:00 +12°C° 0 mm 1 mps 677 mmHg 65%
    04:00 +12°C° 0 mm 1 mps 677 mmHg 65%
    05:00 +12°C° 0 mm 1 mps 676 mmHg 65%
    06:00 +12°C° 0 mm 1 mps 676 mmHg 65%
    07:00 +14°C° 0 mm 1 mps 677 mmHg 56%
    08:00 +16°C° 0 mm 1 mps 678 mmHg 47%
    09:00 +20°C° 0 mm 1 mps 678 mmHg 38%
    10:00 +21°C° 0 mm 1 mps 678 mmHg 35%
    11:00 +22°C° 0 mm 1 mps 678 mmHg 32%
    12:00 +23°C° 0 mm 1 mps 679 mmHg 29%
    13:00 +24°C° 0 mm 1 mps 678 mmHg 28%
    14:00 +24°C° 0 mm 1 mps 678 mmHg 28%
    15:00 +24°C° 0 mm 1 mps 678 mmHg 28%
    16:00 +24°C° 0 mm 1 mps 677 mmHg 31%
    17:00 +23°C° 0 mm 1 mps 677 mmHg 34%
    18:00 +23°C° 0 mm 1 mps 677 mmHg 38%
    19:00 +21°C° 0 mm 1 mps 677 mmHg 44%
    20:00 +19°C° 0 mm 1 mps 677 mmHg 50%
    21:00 +16°C° 0 mm 1 mps 677 mmHg 56%
    22:00 +15°C° 0 mm 1 mps 677 mmHg 58%
    23:00 +15°C° 0 mm 1 mps 677 mmHg 60%

    30 April, Tuesday

    Time Temperature Precipitation Wind Pressure Humidity
    00:00 +14°C° 0 mm 1 mps 676 mmHg 62%
    01:00 +14°C° 0 mm 1 mps 676 mmHg 64%
    02:00 +13°C° 0 mm 1 mps 675 mmHg 66%
    03:00 +12°C° 0 mm 0 mps 675 mmHg 68%
    04:00 +13°C° 0 mm 1 mps 675 mmHg 67%
    05:00 +13°C° 0 mm 1 mps 675 mmHg 67%
    06:00 +13°C° 0 mm 1 mps 675 mmHg 66%
    07:00 +15°C° 0 mm 1 mps 676 mmHg 57%
    08:00 +18°C° 0 mm 1 mps 676 mmHg 47%
    09:00 +21°C° 0 mm 1 mps 677 mmHg 38%
    10:00 +22°C° 0 mm 1 mps 677 mmHg 35%
    11:00 +23°C° 0 mm 1 mps 677 mmHg 33%
    12:00 +24°C° 0 mm 1 mps 677 mmHg 30%
    13:00 +24°C° 0 mm 1 mps 677 mmHg 30%
    14:00 +24°C° 0 mm 2 mps 677 mmHg 30%
    15:00 +25°C° 0 mm 2 mps 676 mmHg 30%
    16:00 +24°C° 0 mm 2 mps 676 mmHg 33%
    17:00 +24°C° 0 mm 2 mps 676 mmHg 36%
    18:00 +23°C° 0 mm 2 mps 676 mmHg 38%
    19:00 +21°C° 0 mm 1 mps 676 mmHg 45%
    20:00 +19°C° 0 mm 1 mps 675 mmHg 51%
    21:00 +16°C° 0 mm 0 mps 675 mmHg 57%
    22:00 +16°C° 0 mm 1 mps 675 mmHg 59%
    23:00 +15°C° 0 mm 1 mps 675 mmHg 60%
    Show more